Regional Weather Roundup
Issued by NWS

Home | Current Version | Previous Version | Graphics & Text | Print | Product List | Glossary On
Versions: 1 2 3 4 5 6 7 8 9 10 11 12 13 14 15 16 17 18 19 20 21 22 23 24 25 26 27
000
ASUS45 KCYS 201210
RWRWY

WYOMING REGIONAL WEATHER ROUNDUP
NATIONAL WEATHER SERVICE CHEYENNE WY
500 AM MST MON NOV 20 2017

NOTE:  "FAIR" INDICATES FEW OR NO CLOUDS BELOW 12,000 FEET
WITH NO SIGNIFICANT WEATHER AND/OR OBSTRUCTIONS TO VISIBILITY.

WYZ001-201300-
YELLOWSTONE NATIONAL PARK

CITY           SKY/WX    TMP DP  RH WIND       PRES   REMARKS
LK YELLOWSTONE   N/A     16  14  92 W3        29.93F
6HR MIN TEMP:  11; 6HR MAX TEMP:  16;

W YELLOWSTONE  NOT AVBL

$$
WYZ002>013-054>058-071-098>099-201300-
NORTHERN WYOMING

CITY           SKY/WX    TMP DP  RH WIND       PRES   REMARKS
JACKSON        CLOUDY    28  20  71 SW10        N/A  WCI  19
CODY           FAIR      48   7  18 CALM      29.73R
GREYBULL       FAIR      25  22  88 SW6       29.74F WCI  18
6HR MIN TEMP:  22; 6HR MAX TEMP:  26;

WORLAND        FAIR      25  22  88 S6        29.74F WCI  18
6HR MIN TEMP:  20; 6HR MAX TEMP:  25;

SHERIDAN       FAIR      50  12  21 W13       29.61F
6HR MIN TEMP:  32; 6HR MAX TEMP:  57;

BUFFALO        FAIR      47  13  25 CALM      29.65F
6HR MIN TEMP:  38; 6HR MAX TEMP:  54;

GILLETTE       FAIR      44  11  26 SW26G37   29.61F
6HR MIN TEMP:  43; 6HR MAX TEMP:  45;

HULETT         FAIR      43  12  28 SW14G24   29.63F
NEWCASTLE      FAIR      30  18  59 S3        29.70F

$$
WYZ014>020-022>026-101>103-201300-
CENTRAL WYOMING

CITY           SKY/WX    TMP DP  RH WIND       PRES   REMARKS
BIG PINEY      FAIR      11   8  88 CALM      30.04R
6HR MIN TEMP:   3; 6HR MAX TEMP:  11;

PINEDALE       CLOUDY    18  14  86 CALM      30.05R
DUBOIS         CLOUDY    32   9  37 NW21G31   29.88S WCI  20
LANDER         FAIR      32   9  38 MISG      29.80F
6HR MIN TEMP:  24; 6HR MAX TEMP:  36;

RIVERTON       FAIR      29  11  47 S5        29.82F WCI  24
6HR MIN TEMP:  24; 6HR MAX TEMP:  32;

CASPER         FAIR      35  13  40 VRB7G17   29.84R WCI  29
6HR MIN TEMP:  35; 6HR MAX TEMP:  40; 6HR PCP: TRACE;

DOUGLAS        FAIR      46  14  27 W21       29.73F
6HR MIN TEMP:  33; 6HR MAX TEMP:  47;


$$
WYZ021-027>030-104>119-201300-
SOUTHERN WYOMING

CITY           SKY/WX    TMP DP  RH WIND       PRES   REMARKS
EVANSTON       MOCLDY    30  17  58 SW14      30.06R WCI  19
6HR MIN TEMP:  23; 6HR MAX TEMP:  31;

KEMMERER       FAIR      25  14  63 W12       30.03F WCI  14
FORT BRIDGER   CLOUDY    31  18  57 W14       30.06S WCI  21
ROCK SPRINGS   MOCLDY    24  12  60 W7        30.03S WCI  16
6HR MIN TEMP:  20; 6HR MAX TEMP:  24;

DIXON          FAIR      20  13  73 NW3       30.10S
RAWLINS        FAIR      31   9  39 CALM      29.98F
6HR MIN TEMP:  30; 6HR MAX TEMP:  36; 6HR PCP: TRACE;

SARATOGA       FAIR      28  12  50 SE8       30.03F WCI  20
LARAMIE        FAIR      37   6  27 SW25G44   29.95F WCI  25
6HR MIN TEMP:  30; 6HR MAX TEMP:  38;

CHEYENNE       FAIR      47  -3  12 S13G22    29.85F
6HR MIN TEMP:  38; 6HR MAX TEMP:  48;

TORRINGTON     FAIR      51   7  16 W24G40    29.72F
6HR MIN TEMP:  45; 6HR MAX TEMP:  51;

PINE BLUFFS    FAIR      46   0  14 W22G33    29.80S

$$




USA.gov is the U.S. government's official web portal to all federal, state and local government web resources and services.